Small Craft Advisory
 click here for details
SBYC BurgeeSandy Bay Yacht Club
Weather Center


NOAA NWS Hourly Roundups by Site

NOAA NWS Hourly Roundups by Site

Regional Weather Roundup for Boston, MA

To Select Another Site Choose from List
Select Site:  

000
ASUS41 KBOX 201810
RWRBOX

REGIONAL WEATHER ROUNDUP
NATIONAL WEATHER SERVICE BOSTON/NORTON MA
200 PM EDT MON MAY 20 2019

NOTE:  "FAIR" INDICATES FEW OR NO CLOUDS BELOW 12,000 FEET WITH NO
SIGNIFICANT WEATHER AND/OR OBSTRUCTIONS TO VISIBILITY.

MAZALL-201900-
EASTERN MASSACHUSETTS

CITY           SKY/WX    TMP DP  RH WIND       PRES   REMARKS
BOSTON         FAIR      85  64  49 W15       29.69F
6HR MIN TEMP:  69; 6HR MAX TEMP:  85; 6HR PCP: TRACE;

BEVERLY        FAIR      81  65  58 W13G23    29.68F
LAWRENCE       FAIR      82  63  52 SW14G23   29.70F
BEDFORD        PTSUNNY   82  63  52 SW14G22   29.69F
BLUE HILL        N/A     80  63  55 SW14G29   29.72F
NORWOOD        FAIR      86  63  45 SW12G23   29.70F
MARSHFIELD     FAIR      84  68  58 SW10G17   29.69F
PLYMOUTH       FAIR      79  62  56 S9G22     29.72F
TAUNTON        FAIR      84  64  50 SW10      29.71F
NEW BEDFORD    FAIR      77  66  68 S14       29.74F
$$

MAZALL-201900-
CAPE COD AND THE ISLANDS

CITY           SKY/WX    TMP DP  RH WIND       PRES   REMARKS
FALMOUTH       FAIR      73  63  68 SW15G24   29.76F
HYANNIS        FAIR      71  60  68 SW17G24   29.76F
CHATHAM        FAIR      64  57  78 SW12G22   29.79F
PROVINCETOWN   FAIR      70  60  70 SW16G25   29.73F
NANTUCKET      FAIR      63  56  78 SW16      29.81F
MARTHAS VNYRD  FAIR      69  58  67 SW14      29.79F
$$

MAZALL-201900-
CENTRAL AND WESTERN MASSACHUSETTS

CITY           SKY/WX    TMP DP  RH WIND       PRES   REMARKS
WORCESTER      PTSUNNY   78  63  59 SW18G24   29.75F
6HR MIN TEMP:  65; 6HR MAX TEMP:  78; 6HR PCP: TRACE;

FITCHBURG      PTSUNNY   81  61  50 SW12G22   29.71F
ORANGE         RAIN      74  66  76 VRB7      29.72F
SPRINGFIELD    PTSUNNY   83  58  42 W13G22    29.70F
WESTFIELD      CLOUDY    82  59  45 W14G22    29.71F
NORTH ADAMS    CLOUDY    75  63  66 W7        29.71F
PITTSFIELD     CLOUDY    73  60  63 SW9G17    29.74F
$$

RIZALL-201900-
RHODE ISLAND

CITY           SKY/WX    TMP DP  RH WIND       PRES   REMARKS
PROVIDENCE     FAIR      81  64  56 SE10      29.73F
6HR MIN TEMP:  65; 6HR MAX TEMP:  83;

NEWPORT        FAIR      70  62  76 S12       29.76F
BLOCK ISLAND   FAIR      64  57  78 SW21G28   29.79F
SMITHFIELD     FAIR      83  63  50 SW15G23   29.74F
WESTERLY       FAIR      76  64  66 SW8G17    29.78F
$$

CTZALL-201900-
CONNECTICUT

CITY           SKY/WX    TMP DP  RH WIND       PRES   REMARKS
BRADLEY INTL   PTSUNNY   85  60  42 W17G25    29.72F
6HR MIN TEMP:  67; 6HR MAX TEMP:  87;

HARTFORD       FAIR      82  63  52 SW9G20    29.72F
BRIDGEPORT     FAIR      76  61  59 SW12      29.75F
DANBURY        MOSUNNY   81  62  52 SW15G24   29.76F
GROTON         FAIR      72  62  71 S7        29.77F
NEW HAVEN      FAIR      79  64  60 SW12G17   29.75F
CHESTER        NOT AVBL
MERIDEN        PTSUNNY   84  61  45 SW13G22   29.73F
WILLIMANTIC    PTSUNNY   83  64  52 W8G18     29.74F
OXFORD         PTSUNNY   80  64  58 SW10G17   29.77F
$$

MEZ002-015-021-024-NHZ003-005-008-011-012-014-VTZ005-008-201900-
NORTHERN NEW ENGLAND

CITY           SKY/WX    TMP DP  RH WIND       PRES   REMARKS
PORTLAND ME    FAIR      71  61  70 SW7       29.68F
6HR MIN TEMP:  53; 6HR MAX TEMP:  72; 6HR PCP:  0.02;

BANGOR ME      LGT RAIN  57  56  96 S6        29.68F
CONCORD NH     FAIR      83  60  45 SW13G22   29.67F
MANCHESTER NH  FAIR      83  60  45 SW13G21   29.67F
NASHUA NH      NOT AVBL
PORTSMOUTH NH  PTSUNNY   82  60  47 SW12G22   29.66
JAFFREY NH     CLOUDY    75  61  61 S9G20     29.73F
KEENE NH       CLOUDY    76  64  66 SW10      29.70F
BURLINGTON VT  LGT RAIN  76  59  55 W8        29.63F
MT. WASHINGTON FOG       48  48 100 W47         N/A  VSB 0
$$

NYZ052-076-201900-
EASTERN NEW YORK

CITY           SKY/WX    TMP DP  RH WIND       PRES   REMARKS
ALBANY         FAIR      82  59  45 SW13G22   29.69F
6HR MIN TEMP:  65; 6HR MAX TEMP:  82; 6HR PCP:  0.01;

NEW YORK CITY  PTSUNNY   86  59  39 W16G30    29.76F
6HR MIN TEMP:  68; 6HR MAX TEMP:  86;

$$

ANZALL-201900-
MARINE OBSERVATIONS

STATION/POSITION TIME  TEMP    WIND        PRES    VSBY  WAVE
                       AIR SEA DIR/SP/G                  HT/PER
                 (UTC) (F)     (DEG/KT/KT) (MB)    (MI)  (FT/S)
BOSTON BUOY      1750   57 53  120/  8/ 10 1005.0F         1/ 5
BUZZARDS BAY     NOT AVBL
NANTUCKET SOUND  1750      54  210/ 16/ 19 1008.7F         2/ 3
MASS BAY-STELLWA NOT AVBL
ISLE OF SHOALS   1700   68     180/ 21/ 22 1005.2F
S OF BLOCK IS    1730      52                N/A           5/ 6
$$

......................KEY.........................
  SKY/WX - SKY CONDITION/PRESENT WEATHER
  TMP    - TEMPERATURE IN FAHRENHEIT
  DWPT   - DEWPOINT IN FAHRENHEIT
  RH     - RELATIVE HUMIDITY IN PERCENT
  WIND   - DIRECTION AND SPEED IN MPH
  PRES   - MEAN SEA LEVEL PRESSURE IN INCHES OF HG
  WCI    - WIND CHILL INDEX
  VSB    - VISIBILITY IN MILES
  HX     - HEAT INDEX
  TC     - TEMPERATURE IN CELSIUS
  VRB    - VARIABLE WIND DIRECTION
  N/A    - NOT AVAILABLE



 

View Past Reports for Boston, MA.

Products Courtesy of NOAA-NWS
NWS Information Parsing Script by Ken True at Saratoga Weather - Script by SE Lincoln Weather.

 



home

Copyright © Sandy Bay Yacht Club. All rights reserved.